FW9683 Weather Reports


time (UTC)temp
F
wind
direction
speed
knots
gust
knots
rain 1hr
in
rain 24hr
in
rain mn
in
humidity
%
barometer
mb
20260510141553 75 186 9.6 20.0 0.00 0.00 0.00 61 1012.2
20260510134607 74 202 7.8 18.2 0.00 0.00 0.00 62 1011.9
20260510133057 73 173 5.2 14.8 0.00 0.00 0.00 64 1011.8
20260510131554 72 195 7.8 17.4 0.00 0.00 0.00 65 1011.7
20260510130056 71 191 7.8 13.9 0.00 0.00 0.00 66 1011.4
20260510124603 71 167 6.1 13.0 0.00 0.00 0.00 67 1011.5
20260510123057 70 182 7.8 12.2 0.00 0.00 0.00 67 1011.4
20260510121553 70 202 6.1 13.0 0.00 0.00 0.00 67 1011.2
20260510120053 70 196 7.0 13.0 0.00 0.00 0.00 67 1011.0
20260510114553 71 215 6.1 13.0 0.00 0.00 0.00 67 1011.0
20260510113102 71 182 6.1 13.0 0.00 0.00 0.00 67 1010.8
20260510111607 71 200 6.1 13.0 0.00 0.00 0.00 67 1010.8
20260510110057 71 196 6.1 11.3 0.00 0.00 0.00 67 1010.8
20260510104555 71 177 4.3 11.3 0.00 0.00 0.00 66 1010.8
20260510103052 71 193 6.1 12.2 0.00 0.00 0.00 65 1010.5
20260510101553 72 191 5.2 13.9 0.00 0.00 0.00 65 1010.3
20260510100053 72 175 7.0 13.0 0.00 0.00 0.00 64 1010.3
20260510094553 72 200 7.0 15.6 0.00 0.00 0.00 63 1010.3
20260510093104 73 201 7.8 16.5 0.00 0.00 0.00 62 1010.3
20260510091553 73 225 9.6 17.4 0.00 0.00 0.00 61 1010.3
20260510090104 73 223 9.6 15.6 0.00 0.00 0.00 60 1010.4
20260510084552 73 195 9.6 20.0 0.00 0.00 0.00 59 1010.3
20260510083105 73 214 9.6 20.9 0.00 0.00 0.00 58 1010.2
20260510081607 73 198 8.7 16.5 0.00 0.00 0.00 57 1010.3
20260510080056 74 189 6.1 16.5 0.00 0.00 0.00 56 1010.5
20260510074558 74 157 8.7 15.6 0.00 0.00 0.00 56 1010.5
20260510073054 74 196 7.0 13.9 0.00 0.00 0.00 54 1010.8
20260510071552 75 236 7.8 19.1 0.00 0.00 0.00 53 1010.8
20260510070055 75 203 8.7 16.5 0.00 0.00 0.00 51 1010.9
20260510064604 75 221 7.8 14.8 0.00 0.00 0.00 48 1011.1
20260510063053 76 190 6.1 15.6 0.00 0.00 0.00 46 1011.1
20260510061551 77 189 7.0 13.0 0.00 0.00 0.00 45 1011.1
20260510060053 77 221 6.1 16.5 0.00 0.00 0.00 44 1011.0
20260510054556 77 173 6.1 13.9 0.00 0.00 0.00 43 1010.9
20260510053057 78 180 7.0 13.0 0.00 0.00 0.00 43 1010.8
20260510051559 78 180 7.8 15.6 0.00 0.00 0.00 42 1010.7
20260510050100 79 173 8.7 16.5 0.00 0.00 0.00 40 1010.8
20260510044637 79 194 8.7 19.1 0.00 0.00 0.00 39 1010.8
20260510043055 80 191 9.6 19.1 0.00 0.00 0.00 36 1010.8
20260510041556 80 177 7.8 13.9 0.00 0.00 0.00 32 1010.8
20260510040055 81 171 8.7 14.8 0.00 0.00 0.00 29 1010.8
20260510034554 81 186 7.0 13.9 0.00 0.00 0.00 29 1010.6
20260510033053 82 171 7.8 14.8 0.00 0.00 0.00 29 1010.4
20260510031557 82 200 7.0 13.0 0.00 0.00 0.00 29 1010.3
20260510030055 83 191 6.1 11.3 0.00 0.00 0.00 29 1010.2
20260510024553 83 178 5.2 9.6 0.00 0.00 0.00 27 1009.9
20260510023054 84 163 5.2 11.3 0.00 0.00 0.00 25 1009.8
20260510021557 86 185 5.2 10.4 0.00 0.00 0.00 23 1009.7
20260510020058 87 187 5.2 11.3 0.00 0.00 0.00 21 1009.5
20260510014553 88 202 5.2 11.3 0.00 0.00 0.00 21 1009.2
20260510013053 89 193 7.0 11.3 0.00 0.00 0.00 19 1009.1
20260510011556 90 229 7.8 15.6 0.00 0.00 0.00 17 1009.0
20260510010126 91 162 7.0 11.3 0.00 0.00 0.00 17 1008.9
20260510004554 91 216 7.0 17.4 0.00 0.00 0.00 16 1008.9
20260510003054 92 177 7.8 13.9 0.00 0.00 0.00 17 1008.9
20260510001554 92 209 6.1 18.2 0.00 0.00 0.00 17 1009.0
20260510000054 93 228 7.0 14.8 0.00 0.00 0.00 16 1009.0
20260509234613 93 221 4.3 14.8 0.00 0.00 0.00 16 1009.1
20260509233054 93 171 6.1 13.9 0.00 0.00 0.00 16 1009.0
20260509231554 93 187 4.3 13.9 0.00 0.00 0.00 16 1009.1
20260509230058 93 194 8.7 13.0 0.00 0.00 0.00 16 1009.3
20260509224553 93 210 6.1 13.9 0.00 0.00 0.00 16 1009.3
20260509223052 93 245 12.2 17.4 0.00 0.00 0.00 16 1009.4
20260509221554 92 219 9.6 15.6 0.00 0.00 0.00 17 1009.5
20260509214556 92 157 5.2 15.6 0.00 0.00 0.00 18 1009.8
20260509213057 92 192 9.6 18.2 0.00 0.00 0.00 17 1010.0
20260509211558 91 196 5.2 19.1 0.00 0.00 0.00 19 1010.3
20260509210057 91 221 7.0 18.2 0.00 0.00 0.00 20 1010.5
20260509204601 90 198 7.8 16.5 0.00 0.00 0.00 21 1010.9
20260509203138 91 228 9.6 18.2 0.00 0.00 0.00 19 1011.2
20260509201622 90 200 8.7 18.2 0.00 0.00 0.00 22 1011.5
20260509200100 89 133 7.0 15.6 0.00 0.00 0.00 25 1011.6
20260509194554 89 240 10.4 17.4 0.00 0.00 0.00 24 1011.8
20260509193119 89 221 5.2 14.8 0.00 0.00 0.00 27 1011.9
20260509191612 88 212 8.7 20.0 0.00 0.00 0.00 27 1012.1
20260509190057 88 209 6.1 15.6 0.00 0.00 0.00 29 1012.3
20260509184558 87 153 8.7 13.9 0.00 0.00 0.00 31 1012.3
20260509183057 87 160 7.8 16.5 0.00 0.00 0.00 31 1012.7
20260509181600 86 142 6.1 16.5 0.00 0.00 0.00 33 1012.9
20260509180104 85 221 8.7 16.5 0.00 0.00 0.00 34 1013.1
20260509174556 85 221 7.8 13.9 0.00 0.00 0.00 31 1013.2
20260509173101 84 242 8.7 14.8 0.00 0.00 0.00 35 1013.4
20260509171551 83 183 6.1 14.8 0.00 0.00 0.00 36 1013.4
20260509170058 83 232 7.0 15.6 0.00 0.00 0.00 37 1013.6
20260509164601 82 144 3.5 12.2 0.00 0.00 0.00 38 1013.6
20260509163055 81 203 7.8 15.6 0.00 0.00 0.00 40 1013.8
20260509161557 81 223 7.8 16.5 0.00 0.00 0.00 39 1013.9
20260509160053 80 223 7.8 13.0 0.00 0.00 0.00 43 1013.9
20260509154551 78 201 8.7 15.6 0.00 0.00 0.00 45 1013.8
20260509153105 77 223 7.8 13.9 0.00 0.00 0.00 47 1014.0
20260509151608 76 223 7.0 13.0 0.00 0.00 0.00 49 1014.1
20260509150056 75 223 7.8 13.9 0.00 0.00 0.00 56 1014.3
20260509144553 73 252 7.0 10.4 0.00 0.00 0.00 62 1014.4
20260509143054 71 252 7.0 9.6 0.00 0.00 0.00 67 1014.4